Location: Gowrie
(35.4119°S, 149.1090°E)
Time: 10:33:15
(UTC+11:00)

ISS - Visible Passes

Search period start: 24 January 2018 00:00
Search period end: 03 February 2018 00:00
Orbit: 402 x 407 km, 51.6° (Epoch: 24 January)

Date Brightness Start Highest point End Pass type
(mag) Time Alt. Az. Time Alt. Az. Time Alt. Az.
29 Jan -1.6 05:25:34 10° N 05:28:08 21° NE 05:30:44 10° ESE visible
30 Jan -0.9 04:35:39 10° NE 04:36:00 10° NE 04:36:20 10° ENE visible
31 Jan -3.4 05:17:27 18° NNW 05:19:41 59° NE 05:23:00 10° SE visible
01 Feb -2.2 04:27:21 27° NE 04:27:25 27° NE 04:30:18 10° ESE visible
02 Feb -3.3 05:09:50 26° W 05:11:21 48° SW 05:14:38 10° SE visible
